| time (UTC) | temp F | wind direction | speed MPH | gust MPH | rain 1hr in | rain 24hr in | rain mn in | humidity % | barometer mb |
| 20260509051505 | 54 | 223 | 1.0 | 3.0 | 0.00 | 0.00 | 0.00 | 72 | 1022.5 |
| 20260509051005 | 54 | 152 | 1.0 | 2.0 | 0.00 | 0.00 | 0.00 | 72 | 1022.5 |
| 20260509050506 | 54 | 108 | 1.0 | 3.0 | 0.00 | 0.00 | 0.00 | 71 | 1022.6 |
| 20260509050008 | 54 | 122 | 2.0 | 3.0 | 0.00 | 0.00 | 0.00 | 71 | 1022.5 |
| 20260509045505 | 54 | 148 | 1.0 | 5.0 | 0.00 | 0.00 | 0.00 | 72 | 1022.6 |
| 20260509045006 | 54 | 124 | 2.0 | 5.0 | 0.00 | 0.00 | 0.00 | 72 | 1022.5 |
| 20260509044506 | 54 | 213 | 1.0 | 4.0 | 0.00 | 0.00 | 0.00 | 71 | 1022.6 |
| 20260509044006 | 54 | 89 | 2.0 | 4.0 | 0.00 | 0.00 | 0.00 | 71 | 1022.5 |
| 20260509043505 | 54 | 178 | 1.0 | 4.0 | 0.00 | 0.00 | 0.00 | 72 | 1022.4 |
| 20260509043007 | 54 | 145 | 1.0 | 5.0 | 0.00 | 0.00 | 0.00 | 73 | 1022.4 |
| 20260509042506 | 54 | 152 | 1.0 | 5.0 | 0.00 | 0.00 | 0.00 | 73 | 1022.4 |
| 20260509041505 | 54 | 145 | 1.0 | 4.0 | 0.00 | 0.00 | 0.00 | 72 | 1022.4 |
| 20260509041006 | 54 | 135 | 1.0 | 4.0 | 0.00 | 0.00 | 0.00 | 73 | 1022.4 |
| 20260509040506 | 54 | 129 | 1.0 | 5.0 | 0.00 | 0.00 | 0.00 | 73 | 1022.3 |
| 20260509040007 | 54 | 171 | 2.0 | 5.0 | 0.00 | 0.00 | 0.00 | 73 | 1022.3 |
| 20260509035505 | 54 | 229 | 2.0 | 4.0 | 0.00 | 0.00 | 0.00 | 73 | 1022.3 |
| 20260509035005 | 54 | 218 | 2.0 | 3.0 | 0.00 | 0.00 | 0.00 | 73 | 1022.2 |
| 20260509034505 | 54 | 135 | 1.0 | 3.0 | 0.00 | 0.00 | 0.00 | 74 | 1022.2 |
| 20260509033505 | 54 | 89 | 1.0 | 3.0 | 0.00 | 0.00 | 0.00 | 73 | 1022.2 |
| 20260509033007 | 54 | 241 | 1.0 | 3.0 | 0.00 | 0.00 | 0.00 | 73 | 1022.1 |
| 20260509032005 | 55 | 148 | 1.0 | 3.0 | 0.00 | 0.00 | 0.00 | 73 | 1022.0 |
| 20260509031506 | 55 | 135 | 1.0 | 3.0 | 0.00 | 0.00 | 0.00 | 72 | 1022.0 |
| 20260509031006 | 55 | 89 | 2.0 | 5.0 | 0.00 | 0.00 | 0.00 | 71 | 1022.0 |
| 20260509030505 | 55 | 1 | 2.0 | 8.0 | 0.00 | 0.00 | 0.00 | 72 | 1022.0 |
| 20260509025505 | 55 | 117 | 2.0 | 5.0 | 0.00 | 0.00 | 0.00 | 72 | 1021.9 |
| 20260509025005 | 56 | 122 | 2.0 | 4.0 | 0.00 | 0.00 | 0.00 | 71 | 1021.8 |
| 20260509024505 | 56 | 206 | 1.0 | 8.0 | 0.00 | 0.00 | 0.00 | 71 | 1021.9 |
| 20260509024005 | 56 | 82 | 3.0 | 8.0 | 0.00 | 0.00 | 0.00 | 70 | 1021.8 |
| 20260509023504 | 56 | 125 | 2.0 | 6.0 | 0.00 | 0.00 | 0.00 | 70 | 1021.7 |
| 20260509022507 | 56 | 148 | 2.0 | 6.0 | 0.00 | 0.00 | 0.00 | 70 | 1021.7 |
| 20260509022005 | 56 | 291 | 2.0 | 6.0 | 0.00 | 0.00 | 0.00 | 70 | 1021.7 |
| 20260509021507 | 56 | 129 | 2.0 | 7.0 | 0.00 | 0.00 | 0.00 | 69 | 1021.6 |
| 20260509021005 | 56 | 142 | 2.0 | 7.0 | 0.00 | 0.00 | 0.00 | 69 | 1021.7 |
| 20260509020504 | 56 | 124 | 3.0 | 6.0 | 0.00 | 0.00 | 0.00 | 69 | 1021.7 |
| 20260509020007 | 57 | 107 | 2.0 | 7.0 | 0.00 | 0.00 | 0.00 | 68 | 1021.8 |
| 20260509015504 | 57 | 108 | 2.0 | 7.0 | 0.00 | 0.00 | 0.00 | 68 | 1021.7 |
| 20260509015005 | 57 | 117 | 1.0 | 6.0 | 0.00 | 0.00 | 0.00 | 69 | 1021.8 |
| 20260509014506 | 57 | 324 | 2.0 | 6.0 | 0.00 | 0.00 | 0.00 | 68 | 1021.8 |
| 20260509014006 | 57 | 186 | 2.0 | 5.0 | 0.00 | 0.00 | 0.00 | 68 | 1021.7 |
| 20260509013005 | 57 | 186 | 2.0 | 6.0 | 0.00 | 0.00 | 0.00 | 68 | 1021.7 |
| 20260509012507 | 57 | 178 | 2.0 | 6.0 | 0.00 | 0.00 | 0.00 | 67 | 1021.8 |
| 20260509012005 | 57 | 123 | 3.0 | 7.0 | 0.00 | 0.00 | 0.00 | 66 | 1021.6 |
| 20260509011506 | 57 | 132 | 3.0 | 7.0 | 0.00 | 0.00 | 0.00 | 66 | 1021.6 |
| 20260509011006 | 57 | 89 | 1.0 | 7.0 | 0.00 | 0.00 | 0.00 | 68 | 1021.7 |
| 20260509010505 | 57 | 202 | 3.0 | 7.0 | 0.00 | 0.00 | 0.00 | 67 | 1021.6 |
| 20260509010006 | 57 | 124 | 2.0 | 9.0 | 0.00 | 0.00 | 0.00 | 67 | 1021.6 |
| 20260509005506 | 57 | 128 | 3.0 | 8.0 | 0.00 | 0.00 | 0.00 | 67 | 1021.6 |
| 20260509005005 | 57 | 193 | 3.0 | 9.0 | 0.00 | 0.00 | 0.00 | 68 | 1021.6 |
| 20260509004506 | 57 | 100 | 2.0 | 8.0 | 0.00 | 0.00 | 0.00 | 68 | 1021.5 |
| 20260509004005 | 57 | 286 | 2.0 | 8.0 | 0.00 | 0.00 | 0.00 | 66 | 1021.5 |
| 20260509003504 | 58 | 329 | 2.0 | 7.0 | 0.00 | 0.00 | 0.00 | 65 | 1021.6 |
| 20260509003005 | 58 | 135 | 2.0 | 6.0 | 0.00 | 0.00 | 0.00 | 66 | 1021.5 |
| 20260509001005 | 56 | 135 | 4.0 | 9.0 | 0.00 | 0.00 | 0.00 | 67 | 1021.7 |
| 20260509000505 | 57 | 131 | 3.0 | 12.0 | 0.00 | 0.00 | 0.00 | 67 | 1021.6 |
| 20260509000008 | 57 | 131 | 3.0 | 8.0 | 0.00 | 0.00 | 0.00 | 67 | 1021.6 |
| 20260508235504 | 57 | 140 | 4.0 | 8.0 | 0.00 | 0.00 | 0.00 | 66 | 1021.6 |
| 20260508235006 | 57 | 145 | 3.0 | 9.0 | 0.00 | 0.00 | 0.00 | 66 | 1021.6 |
| 20260508234506 | 57 | 147 | 3.0 | 9.0 | 0.00 | 0.00 | 0.00 | 66 | 1021.6 |
| 20260508234005 | 57 | 252 | 2.0 | 10.0 | 0.00 | 0.00 | 0.00 | 67 | 1021.5 |
| 20260508233504 | 58 | 154 | 4.0 | 10.0 | 0.00 | 0.00 | 0.00 | 65 | 1021.5 |
| 20260508233006 | 58 | 314 | 2.0 | 7.0 | 0.00 | 0.00 | 0.00 | 66 | 1021.5 |
| 20260508232506 | 57 | 145 | 3.0 | 7.0 | 0.00 | 0.00 | 0.00 | 68 | 1021.4 |
| 20260508232005 | 57 | 193 | 3.0 | 7.0 | 0.00 | 0.00 | 0.00 | 67 | 1021.5 |
| 20260508231506 | 57 | 257 | 1.0 | 9.0 | 0.00 | 0.00 | 0.00 | 69 | 1021.5 |
| 20260508225506 | 57 | 113 | 3.0 | 9.0 | 0.00 | 0.00 | 0.00 | 65 | 1021.3 |
| 20260508225005 | 57 | 296 | 1.0 | 8.0 | 0.00 | 0.00 | 0.00 | 68 | 1021.5 |
| 20260508224506 | 57 | 108 | 2.0 | 8.0 | 0.00 | 0.00 | 0.00 | 68 | 1021.3 |
| 20260508224006 | 57 | 300 | 3.0 | 12.0 | 0.00 | 0.00 | 0.00 | 67 | 1021.3 |
| 20260508223006 | 57 | 147 | 4.0 | 10.0 | 0.00 | 0.00 | 0.00 | 68 | 1021.3 |
| 20260508222505 | 57 | 296 | 4.0 | 12.0 | 0.00 | 0.00 | 0.00 | 67 | 1021.3 |
| 20260508222005 | 57 | 1 | 4.0 | 12.0 | 0.00 | 0.00 | 0.00 | 68 | 1021.3 |
| 20260508221506 | 57 | 129 | 3.0 | 9.0 | 0.00 | 0.00 | 0.00 | 69 | 1021.3 |
| 20260508220505 | 57 | 202 | 2.0 | 9.0 | 0.00 | 0.00 | 0.00 | 71 | 1021.2 |
| 20260508220010 | 56 | 135 | 4.0 | 9.0 | 0.00 | 0.00 | 0.00 | 69 | 1021.1 |
| 20260508215505 | 56 | 174 | 3.0 | 10.0 | 0.00 | 0.00 | 0.00 | 70 | 1021.2 |
| 20260508215005 | 56 | 163 | 4.0 | 10.0 | 0.00 | 0.00 | 0.00 | 69 | 1021.2 |
| 20260508214505 | 56 | 145 | 4.0 | 9.0 | 0.00 | 0.00 | 0.00 | 68 | 1021.2 |
| 20260508214005 | 56 | 344 | 3.0 | 9.0 | 0.00 | 0.00 | 0.00 | 70 | 1021.2 |
| 20260508212007 | 57 | 223 | 3.0 | 9.0 | 0.00 | 0.00 | 0.00 | 69 | 1021.0 |
| 20260508211507 | 56 | 258 | 3.0 | 9.0 | 0.00 | 0.00 | 0.00 | 68 | 1021.1 |
| 20260508211005 | 56 | 72 | 3.0 | 9.0 | 0.00 | 0.00 | 0.00 | 68 | 1021.0 |
| 20260508210505 | 56 | 120 | 5.0 | 11.0 | 0.00 | 0.00 | 0.00 | 67 | 1020.9 |
| 20260508210007 | 57 | 115 | 5.0 | 11.0 | 0.00 | 0.00 | 0.00 | 66 | 1020.9 |
| 20260508204505 | 56 | 155 | 4.0 | 12.0 | 0.00 | 0.00 | 0.00 | 68 | 1020.8 |
| 20260508204007 | 56 | 223 | 4.0 | 12.0 | 0.00 | 0.00 | 0.00 | 68 | 1021.0 |
| 20260508203504 | 57 | 196 | 4.0 | 9.0 | 0.00 | 0.00 | 0.00 | 66 | 1020.8 |
| 20260508203006 | 57 | 126 | 4.0 | 9.0 | 0.00 | 0.00 | 0.00 | 68 | 1020.8 |
| 20260508202505 | 57 | 254 | 3.0 | 11.0 | 0.00 | 0.00 | 0.00 | 68 | 1020.7 |
| 20260508202006 | 58 | 159 | 6.0 | 11.0 | 0.00 | 0.00 | 0.00 | 66 | 1020.5 |
| 20260508201505 | 58 | 231 | 2.0 | 11.0 | 0.00 | 0.00 | 0.00 | 68 | 1020.6 |
| 20260508201006 | 58 | 202 | 4.0 | 11.0 | 0.00 | 0.00 | 0.00 | 69 | 1020.6 |
| 20260508200505 | 57 | 86 | 4.0 | 11.0 | 0.00 | 0.00 | 0.00 | 71 | 1020.5 |
| 20260508200007 | 57 | 168 | 6.0 | 10.0 | 0.00 | 0.00 | 0.00 | 69 | 1020.4 |
| 20260508195505 | 57 | 237 | 3.0 | 12.0 | 0.00 | 0.00 | 0.00 | 71 | 1020.4 |
| 20260508195006 | 57 | 173 | 5.0 | 12.0 | 0.00 | 0.00 | 0.00 | 70 | 1020.4 |
| 20260508194505 | 56 | 129 | 5.0 | 9.0 | 0.00 | 0.00 | 0.00 | 70 | 1020.4 |
| 20260508194006 | 56 | 171 | 4.0 | 8.0 | 0.00 | 0.00 | 0.00 | 70 | 1020.4 |
| 20260508193505 | 56 | 20 | 3.0 | 14.0 | 0.00 | 0.00 | 0.00 | 72 | 1020.4 |
| 20260508192506 | 55 | 113 | 7.0 | 13.0 | 0.00 | 0.00 | 0.00 | 74 | 1020.4 |
| 20260508192007 | 55 | 133 | 5.0 | 10.0 | 0.00 | 0.00 | 0.00 | 75 | 1020.3 |
| 20260508191505 | 54 | 163 | 3.0 | 10.0 | 0.00 | 0.00 | 0.00 | 76 | 1020.1 |
| 20260508191006 | 53 | 132 | 6.0 | 10.0 | 0.00 | 0.00 | 0.00 | 76 | 1020.2 |
| 20260508190506 | 53 | 135 | 3.0 | 11.0 | 0.00 | 0.00 | 0.00 | 76 | 1020.2 |
| 20260508190007 | 53 | 178 | 4.0 | 11.0 | 0.00 | 0.00 | 0.00 | 76 | 1020.2 |
| 20260508185504 | 53 | 130 | 4.0 | 11.0 | 0.00 | 0.00 | 0.00 | 75 | 1020.2 |
| 20260508185005 | 53 | 166 | 4.0 | 10.0 | 0.00 | 0.00 | 0.00 | 75 | 1020.2 |
| 20260508184505 | 54 | 121 | 4.0 | 9.0 | 0.00 | 0.00 | 0.00 | 75 | 1020.1 |
| 20260508184005 | 54 | 95 | 3.0 | 10.0 | 0.00 | 0.00 | 0.00 | 75 | 1020.0 |
| 20260508183006 | 54 | 185 | 3.0 | 7.0 | 0.00 | 0.00 | 0.00 | 77 | 1019.7 |
| 20260508182504 | 54 | 115 | 4.0 | 9.0 | 0.00 | 0.00 | 0.00 | 78 | 1019.7 |
| 20260508182006 | 54 | 236 | 4.0 | 11.0 | 0.00 | 0.00 | 0.00 | 77 | 1019.7 |
| 20260508181505 | 54 | 128 | 6.0 | 11.0 | 0.00 | 0.00 | 0.00 | 76 | 1019.6 |
| 20260508181004 | 54 | 79 | 4.0 | 10.0 | 0.00 | 0.00 | 0.00 | 77 | 1019.6 |
| 20260508180505 | 54 | 241 | 3.0 | 10.0 | 0.00 | 0.00 | 0.00 | 77 | 1019.5 |
| 20260508180005 | 54 | 211 | 6.0 | 10.0 | 0.00 | 0.00 | 0.00 | 76 | 1019.5 |
| 20260508175505 | 54 | 201 | 4.0 | 13.0 | 0.00 | 0.00 | 0.00 | 77 | 1019.5 |
| 20260508175005 | 54 | 154 | 4.0 | 13.0 | 0.00 | 0.00 | 0.00 | 77 | 1019.4 |
| 20260508174504 | 54 | 218 | 2.0 | 10.0 | 0.00 | 0.00 | 0.00 | 77 | 1019.4 |
| 20260508174006 | 54 | 128 | 4.0 | 12.0 | 0.00 | 0.00 | 0.00 | 77 | 1019.3 |
| 20260508173007 | 54 | 89 | 4.0 | 8.0 | 0.00 | 0.00 | 0.00 | 76 | 1019.0 |
| 20260508172506 | 55 | 135 | 3.0 | 10.0 | 0.00 | 0.00 | 0.00 | 76 | 1018.9 |
| 20260508172005 | 54 | 151 | 4.0 | 12.0 | 0.00 | 0.00 | 0.00 | 76 | 1018.8 |
| 20260508171505 | 54 | 278 | 5.0 | 12.0 | 0.00 | 0.00 | 0.00 | 75 | 1018.8 |
| 20260508171005 | 55 | 124 | 5.0 | 11.0 | 0.00 | 0.00 | 0.00 | 75 | 1018.5 |
| 20260508170504 | 55 | 112 | 7.0 | 11.0 | 0.00 | 0.00 | 0.00 | 74 | 1018.5 |
| 20260508170006 | 55 | 184 | 3.0 | 10.0 | 0.00 | 0.00 | 0.00 | 75 | 1018.4 |
| 20260508165504 | 55 | 117 | 6.0 | 10.0 | 0.00 | 0.00 | 0.00 | 75 | 1018.4 |
| 20260508165004 | 55 | 136 | 5.0 | 9.0 | 0.00 | 0.00 | 0.00 | 76 | 1018.4 |
| 20260508164505 | 54 | 135 | 5.0 | 12.0 | 0.00 | 0.00 | 0.00 | 76 | 1018.3 |
| 20260508164005 | 54 | 141 | 6.0 | 13.0 | 0.00 | 0.00 | 0.00 | 76 | 1018.3 |
| 20260508162005 | 54 | 141 | 5.0 | 10.0 | 0.00 | 0.00 | 0.00 | 76 | 1018.3 |
| 20260508161004 | 54 | 113 | 4.0 | 9.0 | 0.00 | 0.00 | 0.00 | 77 | 1018.3 |
| 20260508160505 | 54 | 203 | 5.0 | 11.0 | 0.00 | 0.00 | 0.00 | 76 | 1018.2 |
| 20260508160006 | 54 | 146 | 6.0 | 11.0 | 0.00 | 0.00 | 0.00 | 76 | 1018.1 |
| 20260508155505 | 54 | 114 | 4.0 | 10.0 | 0.00 | 0.00 | 0.00 | 77 | 1018.2 |
| 20260508155005 | 54 | 133 | 5.0 | 9.0 | 0.00 | 0.00 | 0.00 | 77 | 1018.1 |
| 20260508154504 | 54 | 150 | 4.0 | 10.0 | 0.00 | 0.00 | 0.00 | 78 | 1018.0 |
| 20260508153505 | 54 | 149 | 5.0 | 9.0 | 0.00 | 0.00 | 0.00 | 78 | 1017.9 |
| 20260508153005 | 53 | 115 | 5.0 | 9.0 | 0.00 | 0.00 | 0.00 | 79 | 1018.0 |
| 20260508152505 | 53 | 124 | 6.0 | 9.0 | 0.00 | 0.00 | 0.00 | 78 | 1018.1 |
| 20260508152005 | 53 | 213 | 3.0 | 8.0 | 0.00 | 0.00 | 0.00 | 79 | 1018.1 |
| 20260508151505 | 53 | 138 | 4.0 | 8.0 | 0.00 | 0.00 | 0.00 | 78 | 1018.0 |
| 20260508151005 | 53 | 187 | 3.0 | 9.0 | 0.00 | 0.00 | 0.00 | 78 | 1017.9 |
| 20260508150504 | 53 | 137 | 5.0 | 10.0 | 0.00 | 0.00 | 0.00 | 77 | 1018.0 |
| 20260508145505 | 54 | 129 | 4.0 | 7.0 | 0.00 | 0.00 | 0.00 | 78 | 1017.7 |
| 20260508145006 | 54 | 183 | 3.0 | 7.0 | 0.00 | 0.00 | 0.00 | 78 | 1017.6 |
| 20260508144510 | 54 | 128 | 4.0 | 7.0 | 0.00 | 0.00 | 0.00 | 78 | 1017.5 |
| 20260508144006 | 54 | 135 | 4.0 | 7.0 | 0.00 | 0.00 | 0.00 | 80 | 1017.5 |
| 20260508143505 | 53 | 163 | 3.0 | 7.0 | 0.00 | 0.00 | 0.00 | 81 | 1017.3 |
| 20260508142504 | 53 | 178 | 2.0 | 6.0 | 0.00 | 0.00 | 0.00 | 82 | 1017.0 |
| 20260508142005 | 53 | 139 | 3.0 | 6.0 | 0.00 | 0.00 | 0.00 | 81 | 1017.0 |
| 20260508141505 | 53 | 115 | 3.0 | 6.0 | 0.00 | 0.00 | 0.00 | 82 | 1017.0 |
| 20260508141004 | 53 | 178 | 2.0 | 6.0 | 0.00 | 0.00 | 0.00 | 83 | 1017.1 |
| 20260508140504 | 53 | 170 | 3.0 | 4.0 | 0.00 | 0.00 | 0.00 | 83 | 1017.0 |
| 20260508140005 | 53 | 190 | 2.0 | 4.0 | 0.00 | 0.00 | 0.00 | 82 | 1017.1 |
| 20260508135504 | 53 | 241 | 2.0 | 5.0 | 0.00 | 0.00 | 0.00 | 82 | 1017.0 |
| 20260508134509 | 53 | 164 | 2.0 | 7.0 | 0.00 | 0.00 | 0.00 | 82 | 1017.1 |
| 20260508134005 | 52 | 122 | 3.0 | 7.0 | 0.00 | 0.00 | 0.00 | 82 | 1016.9 |
| 20260508133505 | 52 | 209 | 2.0 | 7.0 | 0.00 | 0.00 | 0.00 | 83 | 1016.9 |
| 20260508133006 | 52 | 195 | 4.0 | 7.0 | 0.00 | 0.00 | 0.00 | 83 | 1016.9 |
| 20260508132504 | 52 | 133 | 3.0 | 6.0 | 0.00 | 0.00 | 0.00 | 84 | 1016.9 |
| 20260508132004 | 52 | 175 | 3.0 | 6.0 | 0.00 | 0.00 | 0.00 | 85 | 1016.9 |
| 20260508131004 | 52 | 46 | 1.0 | 5.0 | 0.00 | 0.00 | 0.00 | 86 | 1016.7 |
| 20260508130504 | 52 | 127 | 2.0 | 5.0 | 0.00 | 0.00 | 0.00 | 86 | 1016.6 |
| 20260508130006 | 52 | 56 | 2.0 | 5.0 | 0.00 | 0.00 | 0.00 | 86 | 1016.6 |
| 20260508125504 | 52 | 89 | 1.0 | 3.0 | 0.00 | 0.00 | 0.00 | 86 | 1016.7 |
| 20260508125004 | 52 | 252 | 1.0 | 3.0 | 0.00 | 0.00 | 0.00 | 87 | 1016.6 |
| 20260508124505 | 51 | 135 | 1.0 | 5.0 | 0.00 | 0.00 | 0.00 | 87 | 1016.7 |
| 20260508123505 | 51 | 201 | 2.0 | 6.0 | 0.00 | 0.00 | 0.00 | 88 | 1016.5 |
| 20260508123005 | 51 | 202 | 1.0 | 5.0 | 0.00 | 0.00 | 0.00 | 89 | 1016.6 |
| 20260508122504 | 51 | 331 | 1.0 | 4.0 | 0.00 | 0.00 | 0.00 | 90 | 1016.6 |
| 20260508122004 | 51 | 102 | 1.0 | 4.0 | 0.00 | 0.00 | 0.00 | 90 | 1016.5 |
| 20260508121505 | 50 | 46 | 1.0 | 2.0 | 0.00 | 0.00 | 0.00 | 91 | 1016.5 |
| 20260508121004 | 50 | 269 | 0.0 | 2.0 | 0.00 | 0.00 | 0.00 | 91 | 1016.5 |
| 20260508120504 | 50 | 314 | 1.0 | 2.0 | 0.00 | 0.00 | 0.00 | 91 | 1016.5 |
| 20260508115504 | 49 | 283 | 1.0 | 2.0 | 0.00 | 0.00 | 0.00 | 91 | 1016.4 |
| 20260508115005 | 50 | 1 | 1.0 | 2.0 | 0.00 | 0.00 | 0.00 | 91 | 1016.3 |
| 20260508114506 | 50 | 1 | 1.0 | 2.0 | 0.00 | 0.00 | 0.00 | 91 | 1016.2 |
| 20260508114005 | 50 | 296 | 1.0 | 2.0 | 0.00 | 0.00 | 0.00 | 91 | 1016.2 |
| 20260508113005 | 50 | 296 | 1.0 | 2.0 | 0.00 | 0.00 | 0.00 | 90 | 1016.3 |
| 20260508112504 | 50 | 46 | 0.0 | 1.0 | 0.00 | 0.00 | 0.00 | 90 | 1016.3 |
| 20260508112005 | 50 | 1 | 0.0 | 1.0 | 0.00 | 0.00 | 0.00 | 90 | 1016.3 |
| 20260508111506 | 50 | 89 | 1.0 | 1.0 | 0.00 | 0.00 | 0.00 | 90 | 1016.3 |
| 20260508111004 | 50 | 46 | 0.0 | 2.0 | 0.00 | 0.00 | 0.00 | 90 | 1016.3 |
| 20260508110505 | 50 | 117 | 0.0 | 2.0 | 0.00 | 0.00 | 0.00 | 90 | 1016.3 |
| 20260508110006 | 50 | 178 | 0.0 | 2.0 | 0.00 | 0.00 | 0.00 | 90 | 1016.3 |
| 20260508105504 | 50 | 46 | 0.0 | 1.0 | 0.00 | 0.00 | 0.00 | 90 | 1016.3 |
| 20260508105005 | 50 | 340 | 1.0 | 1.0 | 0.00 | 0.00 | 0.00 | 89 | 1016.2 |
| 20260508104504 | 50 | 314 | 0.0 | 1.0 | 0.00 | 0.00 | 0.00 | 89 | 1016.2 |
| 20260508104004 | 50 | 46 | 0.0 | 1.0 | 0.00 | 0.00 | 0.00 | 89 | 1016.3 |
| 20260508103005 | 50 | 314 | 1.0 | 2.0 | 0.00 | 0.00 | 0.00 | 89 | 1016.3 |
| 20260508102503 | 50 | 303 | 1.0 | 2.0 | 0.00 | 0.00 | 0.00 | 89 | 1016.2 |
| 20260508101504 | 50 | 1 | 1.0 | 2.0 | 0.00 | 0.00 | 0.00 | 88 | 1016.1 |
| 20260508100503 | 50 | 303 | 1.0 | 1.0 | 0.00 | 0.00 | 0.00 | 88 | 1016.1 |
| 20260508100004 | 50 | 331 | 1.0 | 1.0 | 0.00 | 0.00 | 0.00 | 88 | 1016.1 |
| 20260508095505 | 50 | 314 | 1.0 | 1.0 | 0.00 | 0.00 | 0.00 | 88 | 1016.1 |
| 20260508095004 | 50 | 331 | 0.0 | 1.0 | 0.00 | 0.00 | 0.00 | 87 | 1016.0 |
| 20260508094505 | 50 | 269 | 0.0 | 1.0 | 0.00 | 0.00 | 0.00 | 87 | 1016.0 |
| 20260508094005 | 50 | 46 | 0.0 | 2.0 | 0.00 | 0.00 | 0.00 | 87 | 1015.9 |
| 20260508093504 | 50 | 46 | 0.0 | 2.0 | 0.00 | 0.00 | 0.00 | 87 | 1015.8 |
| 20260508093005 | 50 | 324 | 1.0 | 2.0 | 0.00 | 0.00 | 0.00 | 87 | 1015.8 |
| 20260508092504 | 50 | 331 | 1.0 | 2.0 | 0.00 | 0.00 | 0.00 | 87 | 1015.8 |
| 20260508092005 | 50 | 340 | 1.0 | 2.0 | 0.00 | 0.00 | 0.00 | 86 | 1015.8 |
| 20260508091504 | 50 | 331 | 1.0 | 2.0 | 0.00 | 0.00 | 0.00 | 86 | 1015.9 |
| 20260508090459 | 50 | 46 | 0.0 | 1.0 | 0.00 | 0.00 | 0.00 | 86 | 1015.8 |
| 20260508090007 | 50 | 331 | 0.0 | 1.0 | 0.00 | 0.00 | 0.00 | 86 | 1015.8 |
| 20260508085500 | 51 | 269 | 0.0 | 1.0 | 0.00 | 0.00 | 0.00 | 85 | 1015.9 |
| 20260508085004 | 51 | 314 | 0.0 | 1.0 | 0.00 | 0.00 | 0.00 | 85 | 1015.9 |
| 20260508084004 | 51 | 314 | 0.0 | 2.0 | 0.00 | 0.00 | 0.00 | 83 | 1016.0 |
| 20260508083500 | 52 | 296 | 0.0 | 1.0 | 0.00 | 0.00 | 0.00 | 83 | 1015.9 |
| 20260508083005 | 52 | 314 | 0.0 | 1.0 | 0.00 | 0.00 | 0.00 | 82 | 1016.0 |
| 20260508082500 | 52 | 1 | 0.0 | 1.0 | 0.00 | 0.00 | 0.00 | 81 | 1015.9 |
| 20260508082005 | 53 | 269 | 0.0 | 1.0 | 0.00 | 0.00 | 0.00 | 81 | 1016.0 |
| 20260508081505 | 53 | 35 | 0.0 | 1.0 | 0.00 | 0.00 | 0.00 | 79 | 1016.0 |
| 20260508081000 | 53 | 63 | 0.0 | 1.0 | 0.00 | 0.00 | 0.00 | 79 | 1016.1 |
| 20260508080505 | 53 | 46 | 0.0 | 1.0 | 0.00 | 0.00 | 0.00 | 79 | 1016.1 |
| 20260508075506 | 53 | 178 | 0.0 | 2.0 | 0.00 | 0.00 | 0.00 | 78 | 1016.1 |
| 20260508075000 | 53 | 89 | 0.0 | 3.0 | 0.00 | 0.00 | 0.00 | 78 | 1016.2 |
| 20260508074501 | 53 | 135 | 0.0 | 3.0 | 0.00 | 0.00 | 0.00 | 78 | 1016.3 |
| 20260508074004 | 54 | 206 | 1.0 | 2.0 | 0.00 | 0.00 | 0.00 | 78 | 1016.2 |
| 20260508073501 | 54 | 314 | 0.0 | 2.0 | 0.00 | 0.00 | 0.00 | 77 | 1016.3 |
| 20260508073005 | 54 | 63 | 1.0 | 2.0 | 0.00 | 0.00 | 0.00 | 77 | 1016.2 |
| 20260508072500 | 54 | 117 | 1.0 | 2.0 | 0.00 | 0.00 | 0.00 | 76 | 1016.3 |
| 20260508072005 | 54 | 152 | 1.0 | 2.0 | 0.00 | 0.00 | 0.00 | 76 | 1016.3 |
| 20260508071504 | 54 | 135 | 1.0 | 2.0 | 0.00 | 0.00 | 0.00 | 77 | 1016.3 |
| 20260508071004 | 54 | 89 | 1.0 | 3.0 | 0.00 | 0.00 | 0.00 | 77 | 1016.4 |
| 20260508070502 | 54 | 135 | 1.0 | 3.0 | 0.00 | 0.00 | 0.00 | 77 | 1016.4 |
| 20260508070006 | 55 | 241 | 0.0 | 2.0 | 0.00 | 0.00 | 0.00 | 77 | 1016.4 |
| 20260508065006 | 55 | 89 | 1.0 | 3.0 | 0.00 | 0.00 | 0.00 | 77 | 1016.4 |
| 20260508064505 | 55 | 102 | 2.0 | 3.0 | 0.00 | 0.00 | 0.00 | 77 | 1016.5 |
| 20260508064005 | 55 | 269 | 1.0 | 3.0 | 0.00 | 0.00 | 0.00 | 78 | 1016.6 |
| 20260508063005 | 55 | 206 | 2.0 | 4.0 | 0.00 | 0.00 | 0.00 | 77 | 1016.5 |
| 20260508062505 | 55 | 46 | 0.0 | 5.0 | 0.00 | 0.00 | 0.00 | 77 | 1016.5 |
| 20260508062006 | 55 | 89 | 1.0 | 5.0 | 0.00 | 0.00 | 0.00 | 76 | 1016.5 |
| 20260508061506 | 55 | 89 | 1.0 | 4.0 | 0.00 | 0.00 | 0.00 | 77 | 1016.5 |
| 20260508061004 | 55 | 290 | 1.0 | 4.0 | 0.00 | 0.00 | 0.00 | 77 | 1016.6 |
| 20260508060006 | 55 | 46 | 0.0 | 4.0 | 0.00 | 0.00 | 0.00 | 77 | 1016.5 |
| 20260508055505 | 55 | 322 | 1.0 | 4.0 | 0.00 | 0.00 | 0.00 | 77 | 1016.6 |
| 20260508055004 | 55 | 223 | 1.0 | 4.0 | 0.00 | 0.00 | 0.00 | 77 | 1016.7 |
| 20260508054505 | 55 | 145 | 1.0 | 3.0 | 0.00 | 0.00 | 0.00 | 77 | 1016.5 |
| 20260508054005 | 55 | 344 | 1.0 | 3.0 | 0.00 | 0.00 | 0.00 | 77 | 1016.6 |
| 20260508053506 | 55 | 89 | 1.0 | 3.0 | 0.00 | 0.00 | 0.00 | 77 | 1016.6 |
| 20260508053007 | 55 | 223 | 1.0 | 3.0 | 0.00 | 0.00 | 0.00 | 77 | 1016.6 |
| 20260508052505 | 55 | 229 | 1.0 | 3.0 | 0.00 | 0.00 | 0.00 | 77 | 1016.6 |
| 20260508052006 | 55 | 206 | 1.0 | 3.0 | 0.00 | 0.00 | 0.00 | 77 | 1016.6 |